Погода в Чернолесском

Россия / Ставропольский край     44°43′05″N   43°42′27″E
темп.,
°C
ветер,
м/с
пор.,
м/с
влажн.,
%
обл.,
%
осадки,
мм/ч
давл.,
гПа
погр.,
м
11 мая, вт
вт1100:00+7ююз586969 0.0 1018230
03:00+6ююз3678100 0.0 1019119
06:00+7ю3677100 0.0 1018186
09:00+12юв5656100 0.0 1018956
12:00+14вюв6947100 0.0 10171965
15:00+13всв586299 0.0 1017579
18:00+13св4862100 0.0 1016274
21:00+10в4116833 0.0 1017264
12 мая, ср
ср1200:00+7юв347912 0.0 101774
03:00+6вюв22885 0.0 101711
06:00+8св11824 0.0 101752
09:00+14вюв34640 0.0 1017856
12:00+18вюв445316 0.0 10171464
15:00+20вюв455047 0.0 10161718
18:00+18вюв476410 0.0 1015291
21:00+13вюв357889 0.0 101657
13 мая, чт
чт1300:00+11юв36870 0.0 101595
03:00+11юв22910 0.0 101525
06:00+12вюв22860 0.0 101581
09:00+18вюв346779 0.0 1015645
12:00+23вюв45550 0.0 10141007
15:00+25вюв55492 0.0 10141168
18:00+22вюв47614 0.0 1014186
21:00+17вюв336994 0.0 101435
14 мая, пт
пт1400:00+15вюв34765 0.0 101446
03:00+13юв239016 0.0 101428
06:00+14вюв24865 0.0 1015123
09:00+21юв33595 0.0 1014430
12:00+25вюв44465 0.0 1013795
15:00+27вюв45450 0.0 10121003
18:00+26вюв23605 0.0 101249
21:00+19вюв49685 0.0 1012157
15 мая, сб
сб1500:00+16в386410 0.0 1012128
03:00+14в336116 0.0 101237
06:00+15вюв12675 0.0 101380
09:00+22зсз22554 0.0 1013388
12:00+27ссз34501 0.0 10131030
15:00+28с33424 0.0 10121244
18:00
21:00+20сз51178100 0.3 1015302